This demonstration page uses our WeatherBlox Daily Observations layout. Learn more.

Left ArrowRight Arrow

Hourly Observations for October 9, 2015

Temp ( °F °C ) Dew Point ( °F °C ) Humidity (%) Winds ( mph kmh ) Pressure ( in mb ) Visibility ( mi km ) Precip ( " mm )
12:15 am 00:15 Clear 51 10.5 49 9.5 94 94 NNW 7 11 30.27 1025 10 16 N/A
12:35 am 00:35 Clear 50 9.8 48 8.8 94 94 WNW 7 11 30.27 1025 10 16 N/A
12:55 am 00:55 Clear 49 9.6 48 8.7 94 94 NW 7 11 30.27 1025 10 16 N/A
1:15 am 01:15 Clear 49 9.3 47 8.4 94 94 WNW 6 9 30.30 1026 10 16 N/A
1:35 am 01:35 Clear 48 9 47 8.2 95 95 NW 7 11 30.30 1026 10 16 N/A
1:55 am 01:55 Clear 48 9.1 47 8.3 95 95 NW 6 9 30.33 1027 10 16 N/A
2:15 am 02:15 Clear 48 8.7 46 8 95 95 NW 7 11 30.33 1027 10 16 N/A
2:35 am 02:35 Clear 47 8.5 46 7.7 95 95 WNW 6 9 30.33 1027 10 16 N/A
2:55 am 02:55 Clear 47 8.3 46 7.6 95 95 NNW 6 9 30.33 1027 10 16 N/A
3:15 am 03:15 Clear 46 7.6 45 7 96 96 NW 7 11 30.33 1027 10 16 N/A
3:35 am 03:35 Clear 47 8.4 46 7.7 95 95 WNW 5 7 30.36 1028 10 16 N/A
3:55 am 03:55 Clear 47 8.1 46 7.5 96 96 WNW 5 7 30.36 1028 10 16 N/A
4:15 am 04:15 Clear 46 7.6 44 6.9 95 95 WNW 5 7 30.36 1028 10 16 N/A
4:35 am 04:35 Clear 46 7.6 45 7 96 96 W 6 9 30.36 1028 10 16 N/A
4:55 am 04:55 Clear 45 7.3 44 6.7 96 96 WNW 5 7 30.36 1028 10 16 N/A
5:15 am 05:15 Clear 45 7.1 44 6.5 96 96 WNW 3 6 30.36 1028 10 16 N/A
5:35 am 05:35 Clear 44 6.4 42 5.7 95 95 WNW 3 6 30.39 1029 10 16 N/A
5:55 am 05:55 Clear 43 6.1 42 5.5 96 96 WNW 5 7 30.39 1029 10 16 N/A
6:15 am 06:15 Clear 43 6.1 42 5.5 96 96 WNW 5 7 30.39 1029 10 16 N/A
6:35 am 06:35 Clear 43 6 42 5.4 96 96 W 6 9 30.42 1030 10 16 N/A
6:55 am 06:55 Clear 43 6 42 5.3 95 95 WNW 5 7 30.42 1030 10 16 N/A
7:15 am 07:15 Clear 43 6 42 5.3 95 95 WNW 3 6 30.42 1030 7 11 N/A
7:35 am 07:35 Clear with Mist and Fog 42 5.5 41 4.9 96 96 Calm 30.42 1030 4 6 N/A
7:55 am 07:55 Sunny with Mist and Fog 42 5.7 41 5.1 96 96 W 5 7 30.42 1030 5 8 N/A
8:15 am 08:15 Sunny with Mist and Fog 41 5.2 40 4.6 96 96 WNW 3 6 30.42 1030 5 8 N/A
8:35 am 08:35 Sunny 44 6.8 43 6.3 97 97 WNW 3 6 30.45 1031 7 11 N/A
8:55 am 08:55 Sunny 47 8.1 46 7.6 97 97 WNW 3 6 30.42 1030 10 16 N/A
9:15 am 09:15 Sunny 48 9 47 8.5 97 97 WNW 6 9 30.42 1030 10 16 N/A
9:35 am 09:35 Sunny 50 10 49 9.5 97 97 Calm 30.42 1030 10 16 N/A
9:55 am 09:55 Sunny 52 11 51 10.5 97 97 Calm 30.39 1029 10 16 N/A
10:15 am 10:15 Sunny 53 11.7 52 10.9 95 95 Calm 30.39 1029 10 16 N/A
10:35 am 10:35 Sunny 55 12.5 52 11 91 91 Calm 30.39 1029 10 16 N/A
10:55 am 10:55 Sunny 56 13.5 52 11.3 87 87 Calm 30.36 1028 10 16 N/A
11:15 am 11:15 Sunny 58 14.3 52 11.2 82 82 Calm 30.36 1028 10 16 N/A
11:35 am 11:35 Hazy 60 15.4 52 11 75 75 Calm 30.36 1028 5 8 N/A
11:55 am 11:55 Sunny 61 16 52 10.9 72 72 Calm 30.33 1027 10 16 N/A
12:15 pm 12:15 Sunny 63 17.2 51 10.8 66 66 SW 3 6 30.30 1026 10 16 N/A
12:35 pm 12:35 Sunny 64 17.5 48 9.1 58 58 Calm 30.30 1026 10 16 N/A
12:55 pm 12:55 Sunny 64 18 50 9.8 59 59 Calm 30.30 1026 10 16 N/A
1:15 pm 13:15 Sunny 65 18.5 48 9.1 54 54 Calm 30.27 1025 10 16 N/A
1:55 pm 13:55 Sunny 66 19 47 8.3 50 50 N 5 7 30.27 1025 10 16 N/A
2:15 pm 14:15 Sunny 67 19.2 49 9.2 53 53 W 6 9 30.24 1024 10 16 N/A
2:35 pm 14:35 Partly Cloudy 67 19.3 47 8.5 50 50 Calm 30.24 1024 10 16 N/A
2:55 pm 14:55 Sunny 67 19.5 47 8.1 48 48 Calm 30.21 1023 10 16 N/A
3:15 pm 15:15 Sunny 68 20 47 8.4 47 47 Calm 30.18 1022 10 16 N/A
3:35 pm 15:35 Sunny 68 20.1 49 9.3 50 50 WNW 5 7 30.18 1022 10 16 N/A
3:55 pm 15:55 Sunny 69 20.4 48 8.8 47 47 SW 3 6 30.18 1022 10 16 N/A
4:15 pm 16:15 Sunny 69 20.4 48 9.1 48 48 WNW 7 11 30.18 1022 10 16 N/A
4:35 pm 16:35 Sunny 68 20.2 46 7.8 45 45 NW 3 6 30.18 1022 10 16 N/A
4:55 pm 16:55 Sunny 69 20.3 48 8.9 48 48 Calm 30.15 1021 10 16 N/A
5:15 pm 17:15 Sunny 69 20.7 44 6.6 40 40 SW 5 7 30.15 1021 10 16 N/A
5:35 pm 17:35 Sunny 68 19.9 46 7.5 45 45 SSW 5 7 30.15 1021 10 16 N/A
5:55 pm 17:55 Sunny 67 19.2 45 7.4 47 47 Calm 30.15 1021 10 16 N/A
6:15 pm 18:15 Sunny 65 18.5 49 9.7 57 57 S 5 7 30.15 1021 10 16 N/A
6:35 pm 18:35 Sunny 63 17.3 49 9.4 60 60 S 5 7 30.18 1022 10 16 N/A
6:55 pm 18:55 Sunny 62 16.4 49 9.6 64 64 S 6 9 30.15 1021 10 16 N/A
7:15 pm 19:15 Clear 61 16 49 9.5 66 66 SSE 6 9 30.15 1021 10 16 N/A
7:35 pm 19:35 Clear 60 15.5 48 8.9 65 65 S 6 9 30.15 1021 10 16 N/A
7:55 pm 19:55 Clear 58 14.7 48 8.8 68 68 S 7 11 30.15 1021 10 16 N/A
8:15 pm 20:15 Clear 58 14.7 48 8.7 68 68 S 7 11 30.15 1021 10 16 N/A
8:35 pm 20:35 Clear 58 14.7 47 8.5 67 67 S 3 6 30.21 1023 10 16 N/A
8:55 pm 20:55 Clear 58 14.2 47 8.6 69 69 S 5 7 30.18 1022 10 16 N/A
9:15 pm 21:15 Clear 57 14.1 47 8.5 69 69 Calm 30.21 1023 10 16 N/A
9:35 pm 21:35 Clear 56 13.6 47 8.5 72 72 SSE 6 9 30.18 1022 10 16 N/A
9:55 pm 21:55 Clear 55 12.7 47 8.1 74 74 S 6 9 30.18 1022 10 16 N/A
10:15 pm 22:15 Clear 54 12.2 46 7.6 74 74 SSE 7 11 30.18 1022 10 16 N/A
10:35 pm 22:35 Clear 53 11.5 46 7.5 77 77 SSE 7 11 30.18 1022 10 16 N/A
10:55 pm 22:55 Clear 53 11.5 46 7.5 77 77 S 7 11 30.18 1022 10 16 N/A
11:15 pm 23:15 Clear 52 11.2 45 7.4 78 78 SSE 7 11 30.21 1023 10 16 N/A
11:35 pm 23:35 Clear 52 11.1 45 7 76 76 SSE 3 6 30.21 1023 10 16 N/A
11:55 pm 23:55 Clear 53 11.8 44 6.8 72 72 SSE 6 9 30.18 1022 10 16 N/A

Powered by AerisWeather